FW6620 Weather Reports


Display with metric or nautical units.
time (UTC)temp
F
wind
direction
speed
MPH
gust
MPH
rain 1hr
in
rain 24hr
in
rain mn
in
humidity
%
barometer
mb
20260509152545 76 0 1.0 4.0 0.00 0.00 0.00 92 1011.6
20260509152045 76 25 2.0 4.0 0.00 0.00 0.00 93 1011.8
20260509151603 75 15 1.0 4.0 0.00 0.00 0.00 94 1011.9
20260509151045 75 21 0.0 3.0 0.00 0.00 0.00 94 1011.9
20260509150545 75 21 1.0 4.0 0.00 0.00 0.00 95 1011.7
20260509150054 74 21 0.0 4.0 0.00 0.00 0.00 95 1011.7
20260509145545 74 0 0.0 3.0 0.00 0.00 0.00 95 1011.7
20260509145046 74 0 0.0 3.0 0.00 0.00 0.00 96 1011.7
20260509144608 74 0 1.0 3.0 0.00 0.00 0.00 96 1011.6
20260509144045 74 0 0.0 2.0 0.00 0.00 0.00 96 1011.4
20260509143545 74 21 0.0 4.0 0.00 0.00 0.00 96 1011.4
20260509143115 74 21 0.0 4.0 0.00 0.00 0.00 96 1011.4
20260509142544 74 0 0.0 4.0 0.00 0.00 0.00 96 1011.2
20260509142044 73 0 1.0 4.0 0.00 0.00 0.00 96 1011.3
20260509141551 73 21 0.0 2.0 0.00 0.00 0.00 96 1011.2
20260509141045 73 0 0.0 4.0 0.00 0.00 0.00 97 1011.1
20260509140545 73 21 1.0 4.0 0.00 0.00 0.00 97 1011.1
20260509135546 73 0 0.0 2.0 0.00 0.00 0.00 97 1011.1
20260509135048 73 0 0.0 2.0 0.00 0.00 0.00 97 1011.0
20260509134608 73 0 0.0 0.0 0.00 0.00 0.00 97 1011.1
20260509134044 73 0 0.0 0.0 0.00 0.00 0.00 97 1011.4
20260509133551 73 0 0.0 0.0 0.00 0.00 0.00 97 1011.4
20260509133057 73 0 0.0 0.0 0.00 0.00 0.00 97 1011.5
20260509132547 73 0 0.0 0.0 0.00 0.00 0.00 97 1011.6
20260509132051 73 0 0.0 0.0 0.00 0.00 0.00 97 1011.5
20260509131558 73 0 0.0 0.0 0.00 0.00 0.00 97 1011.7
20260509131046 73 0 0.0 0.0 0.00 0.00 0.00 97 1011.6
20260509130547 73 0 0.0 0.0 0.00 0.00 0.00 97 1011.6
20260509125547 72 0 0.0 0.0 0.00 0.00 0.00 97 1011.3
20260509125046 72 0 0.0 0.0 0.00 0.00 0.00 97 1011.2
20260509124556 72 0 0.0 0.0 0.00 0.00 0.00 97 1011.2
20260509124048 72 0 0.0 0.0 0.00 0.00 0.00 97 1011.0
20260509123550 72 0 0.0 0.0 0.00 0.00 0.00 97 1011.1
20260509123111 72 0 0.0 0.0 0.00 0.00 0.00 97 1011.1
20260509122547 72 0 0.0 0.0 0.00 0.00 0.00 97 1011.2
20260509122047 72 0 0.0 2.0 0.00 0.00 0.00 97 1011.2
20260509121610 72 0 0.0 2.0 0.00 0.00 0.00 97 1011.0
20260509121049 72 0 0.0 2.0 0.00 0.00 0.00 96 1011.1
20260509120547 72 0 0.0 0.0 0.00 0.00 0.00 96 1011.2
20260509120115 72 0 0.0 0.0 0.00 0.00 0.00 96 1011.3
20260509115547 72 0 0.0 1.0 0.00 0.00 0.00 96 1011.1
20260509115047 72 0 0.0 1.0 0.00 0.00 0.00 96 1011.1
20260509114601 72 0 0.0 1.0 0.00 0.00 0.00 96 1011.2
20260509114047 72 0 0.0 0.0 0.00 0.00 0.00 96 1011.4
20260509113550 72 0 0.0 1.0 0.00 0.00 0.00 96 1011.8
20260509113050 72 0 0.0 1.0 0.00 0.00 0.00 96 1011.7
20260509112546 72 0 0.0 1.0 0.00 0.00 0.00 96 1011.9
20260509112047 72 0 0.0 0.0 0.00 0.00 0.00 96 1012.0
20260509111600 72 0 0.0 0.0 0.00 0.00 0.00 96 1012.0
20260509111048 72 0 0.0 0.0 0.00 0.00 0.00 96 1011.9
20260509110548 73 0 0.0 0.0 0.00 0.00 0.00 96 1011.9
20260509110053 73 0 0.0 0.0 0.00 0.00 0.00 96 1012.1
20260509105546 73 0 0.0 0.0 0.00 0.00 0.00 96 1012.1
20260509105047 73 0 0.0 0.0 0.00 0.00 0.00 96 1012.0
20260509104551 73 0 0.0 0.0 0.00 0.00 0.00 96 1012.2
20260509104046 73 0 0.0 0.0 0.00 0.00 0.00 96 1012.2
20260509103546 73 0 0.0 0.0 0.00 0.00 0.00 96 1012.3
20260509103103 73 0 0.0 0.0 0.00 0.00 0.00 96 1012.3
20260509102548 73 0 0.0 0.0 0.00 0.00 0.00 96 1012.3
20260509102047 73 0 0.0 0.0 0.00 0.00 0.00 96 1012.1
20260509101617 73 0 0.0 0.0 0.00 0.00 0.00 96 1012.1
20260509101046 73 0 0.0 0.0 0.00 0.00 0.00 96 1011.8
20260509100548 73 0 0.0 0.0 0.00 0.00 0.00 96 1011.4
20260509100051 73 0 0.0 0.0 0.00 0.00 0.00 96 1011.1
20260509095547 73 0 0.0 0.0 0.00 0.00 0.00 96 1010.8
20260509095047 73 0 0.0 0.0 0.00 0.00 0.00 96 1010.8
20260509094559 73 0 0.0 0.0 0.00 0.00 0.00 95 1010.9
20260509094047 73 0 0.0 0.0 0.00 0.00 0.00 95 1010.9
20260509093547 73 0 0.0 0.0 0.00 0.00 0.00 95 1010.9
20260509093054 73 0 0.0 0.0 0.00 0.00 0.00 95 1010.9
20260509092546 73 0 0.0 0.0 0.00 0.00 0.00 95 1010.8
20260509092046 73 0 0.0 0.0 0.00 0.00 0.00 95 1010.8
20260509091603 73 0 0.0 0.0 0.00 0.00 0.00 95 1010.7
20260509091047 73 0 0.0 0.0 0.00 0.00 0.00 95 1010.7
20260509090547 73 0 0.0 0.0 0.00 0.00 0.00 95 1010.8
20260509085546 73 0 0.0 0.0 0.00 0.00 0.00 94 1010.6
20260509085046 73 0 0.0 0.0 0.00 0.00 0.00 94 1010.7
20260509084553 73 0 0.0 0.0 0.00 0.00 0.00 94 1010.8
20260509084049 73 0 0.0 0.0 0.00 0.00 0.00 94 1010.7
20260509083547 73 0 0.0 0.0 0.00 0.00 0.00 94 1010.8
20260509083050 73 0 0.0 0.0 0.00 0.00 0.00 94 1010.9
20260509082547 73 0 0.0 0.0 0.00 0.00 0.00 94 1011.3
20260509082047 73 0 0.0 0.0 0.00 0.00 0.00 94 1011.3
20260509081606 73 0 0.0 0.0 0.00 0.00 0.00 94 1011.4
20260509081047 73 0 0.0 0.0 0.00 0.00 0.00 93 1011.3
20260509080546 73 0 0.0 0.0 0.00 0.00 0.00 93 1011.1
20260509080051 73 0 0.0 0.0 0.00 0.00 0.00 93 1011.1
20260509075548 73 0 0.0 0.0 0.00 0.00 0.00 93 1011.1
20260509075051 73 0 0.0 0.0 0.00 0.00 0.00 93 1011.0
20260509074557 73 0 0.0 0.0 0.00 0.00 0.00 93 1011.0
20260509074046 73 0 0.0 0.0 0.00 0.00 0.00 93 1011.0
20260509073550 73 0 0.0 0.0 0.00 0.00 0.00 93 1011.1
20260509073107 73 0 0.0 0.0 0.00 0.00 0.00 93 1011.1
20260509072550 73 0 0.0 0.0 0.00 0.00 0.00 93 1011.3
20260509072046 73 0 0.0 0.0 0.00 0.00 0.00 92 1011.2
20260509071556 73 0 0.0 0.0 0.00 0.00 0.00 92 1011.2
20260509071048 73 0 0.0 0.0 0.00 0.00 0.00 92 1011.4
20260509070547 73 0 0.0 0.0 0.00 0.00 0.00 92 1011.4
20260509070051 73 0 0.0 1.0 0.00 0.00 0.00 92 1011.4
20260509065547 73 0 0.0 2.0 0.00 0.00 0.00 92 1011.4
20260509065047 73 0 0.0 2.0 0.00 0.00 0.00 92 1011.4
20260509064606 73 0 0.0 1.0 0.00 0.00 0.00 92 1011.2
20260509064048 73 0 0.0 1.0 0.00 0.00 0.00 92 1010.8
20260509063548 73 0 0.0 1.0 0.00 0.00 0.00 92 1011.0
20260509063050 74 0 0.0 3.0 0.00 0.00 0.00 91 1011.0
20260509062548 74 0 1.0 3.0 0.00 0.00 0.00 91 1011.0
20260509062047 74 0 0.0 3.0 0.00 0.00 0.00 91 1011.1
20260509061553 74 22 0.0 4.0 0.00 0.00 0.00 91 1011.0
20260509061048 74 12 1.0 4.0 0.00 0.00 0.00 91 1010.9
20260509060548 74 20 0.0 3.0 0.00 0.00 0.00 91 1010.8
20260509060053 74 35 0.0 3.0 0.00 0.00 0.00 90 1010.8
20260509055548 74 37 1.0 6.0 0.00 0.00 0.00 90 1010.8
20260509055050 74 37 0.0 6.0 0.00 0.00 0.00 90 1010.7
20260509054602 74 41 1.0 6.0 0.00 0.00 0.00 90 1010.8
20260509054048 74 0 0.0 4.0 0.00 0.00 0.00 90 1010.7
20260509053548 74 0 0.0 4.0 0.00 0.00 0.00 90 1010.8
20260509053058 74 0 1.0 6.0 0.00 0.00 0.00 90 1010.8
20260509052548 74 0 0.0 6.0 0.00 0.00 0.00 90 1010.6
20260509052047 74 43 1.0 5.0 0.00 0.00 0.00 90 1010.5
20260509051551 74 16 1.0 6.0 0.00 0.00 0.00 90 1010.2
20260509051047 74 0 1.0 6.0 0.00 0.00 0.00 89 1010.3
20260509050546 74 0 0.0 3.0 0.00 0.00 0.00 89 1010.4
20260509050058 75 17 0.0 3.0 0.00 0.00 0.00 89 1010.3
20260509045548 75 0 0.0 4.0 0.00 0.00 0.00 89 1010.3
20260509045048 75 0 0.0 4.0 0.00 0.00 0.00 88 1010.2
20260509044555 75 18 0.0 3.0 0.00 0.00 0.00 88 1010.2
20260509044047 75 0 0.0 3.0 0.00 0.00 0.00 88 1010.2
20260509043548 75 18 0.0 2.0 0.00 0.00 0.00 88 1010.3
20260509043100 75 0 0.0 2.0 0.00 0.00 0.00 87 1010.3
20260509042547 75 0 0.0 2.0 0.00 0.00 0.00 87 1010.4
20260509042048 75 0 0.0 3.0 0.00 0.00 0.00 87 1010.5
20260509041617 75 0 0.0 3.0 0.00 0.00 0.00 87 1010.6
20260509041049 75 0 0.0 3.0 0.00 0.00 0.00 87 1010.7
20260509040547 76 0 0.0 4.0 0.00 0.00 0.00 87 1010.7
20260509040051 76 16 0.0 3.0 0.00 0.00 0.00 87 1010.7
20260509035548 76 15 0.0 3.0 0.00 0.00 0.00 87 1010.7
20260509035047 76 0 0.0 3.0 0.00 0.00 0.00 87 1010.7
20260509034553 76 0 1.0 3.0 0.00 0.00 0.00 87 1010.5
20260509034048 76 15 0.0 2.0 0.00 0.00 0.00 87 1010.5
20260509033549 76 15 0.0 2.0 0.00 0.00 0.00 86 1010.5
20260509033054 76 15 0.0 2.0 0.00 0.00 0.00 86 1010.6
20260509032548 76 0 0.0 3.0 0.00 0.00 0.00 86 1010.6
20260509032049 75 0 0.0 3.0 0.00 0.00 0.00 86 1010.6
20260509031554 75 0 0.0 3.0 0.00 0.00 0.00 86 1010.5
20260509031047 75 0 0.0 2.0 0.00 0.00 0.00 86 1010.5
20260509030547 75 0 0.0 2.0 0.00 0.00 0.00 86 1010.4
20260509030053 75 0 0.0 2.0 0.00 0.00 0.00 86 1010.2
20260509025548 75 0 0.0 2.0 0.00 0.00 0.00 86 1010.2
20260509025046 76 0 0.0 2.0 0.00 0.00 0.00 85 1010.2
20260509024549 76 0 0.0 2.0 0.00 0.00 0.00 85 1010.1
20260509024047 76 0 0.0 1.0 0.00 0.00 0.00 85 1010.0
20260509023546 76 0 0.0 2.0 0.00 0.00 0.00 85 1010.0
20260509023107 76 0 0.0 2.0 0.00 0.00 0.00 85 1010.0
20260509022546 76 0 0.0 3.0 0.00 0.00 0.00 84 1010.0
20260509022046 76 0 0.0 1.0 0.00 0.00 0.00 84 1009.9
20260509021554 76 0 0.0 1.0 0.00 0.00 0.00 84 1009.8
20260509021046 76 0 0.0 3.0 0.00 0.00 0.00 84 1009.7
20260509020547 77 0 0.0 3.0 0.00 0.00 0.00 83 1009.7
20260509020056 77 0 0.0 1.0 0.00 0.00 0.00 83 1009.6
20260509015547 77 0 0.0 2.0 0.00 0.00 0.00 83 1009.5
20260509015046 77 0 0.0 3.0 0.00 0.00 0.00 82 1009.4
20260509014553 77 13 0.0 3.0 0.00 0.00 0.00 83 1009.4
20260509014047 77 0 0.0 2.0 0.00 0.00 0.00 82 1009.4
20260509013547 77 0 0.0 2.0 0.00 0.00 0.00 82 1009.5
20260509013055 77 0 0.0 2.0 0.00 0.00 0.00 82 1009.5
20260509012548 77 0 0.0 3.0 0.00 0.00 0.00 82 1009.5
20260509012047 78 0 0.0 3.0 0.00 0.00 0.00 82 1009.5
20260509011601 78 13 0.0 3.0 0.00 0.00 0.00 81 1009.5
20260509011047 78 13 0.0 3.0 0.00 0.00 0.00 81 1009.4
20260509010547 78 0 0.0 1.0 0.00 0.00 0.00 81 1009.4
20260509010056 78 0 0.0 2.0 0.00 0.00 0.00 81 1009.2
20260509005548 78 0 0.0 2.0 0.00 0.00 0.00 81 1009.2
20260509005047 78 0 0.0 2.0 0.00 0.00 0.00 80 1009.2
20260509004558 78 0 0.0 2.0 0.00 0.00 0.00 80 1009.2
20260509004048 78 0 0.0 2.0 0.00 0.00 0.00 80 1009.2
20260509003548 78 0 0.0 2.0 0.00 0.00 0.00 80 1009.1
20260509003057 79 0 0.0 2.0 0.00 0.00 0.00 80 1009.0
20260509002546 79 0 0.0 4.0 0.00 0.00 0.00 79 1009.2
20260509002047 79 13 1.0 3.0 0.00 0.00 0.00 79 1009.3
20260509001601 79 0 0.0 3.0 0.00 0.00 0.00 79 1009.2
20260509001047 79 13 0.0 5.0 0.00 0.00 0.00 78 1009.2
20260509000547 79 0 0.0 5.0 0.00 0.00 0.00 78 1009.2
20260509000111 79 0 1.0 4.0 0.00 0.00 0.00 78 1009.3
20260508235547 79 0 0.0 3.0 0.00 0.00 0.00 78 1009.2
20260508235047 79 16 0.0 4.0 0.00 0.00 0.00 78 1009.3
20260508234555 79 0 0.0 4.0 0.00 0.00 0.00 78 1009.2
20260508234051 79 17 0.0 2.0 0.00 0.00 0.00 78 1009.3
20260508233547 79 0 0.0 4.0 0.00 0.00 0.00 78 1009.3
20260508233108 79 0 1.0 5.0 0.00 0.00 0.00 77 1009.3
20260508232545 80 19 1.0 5.0 0.00 0.00 0.00 77 1009.2
20260508232045 80 0 1.0 4.0 0.00 0.00 0.00 77 1009.2
20260508231551 80 0 0.0 2.0 0.00 0.00 0.00 77 1009.2
20260508231047 80 0 0.0 3.0 0.00 0.00 0.00 78 1009.2
20260508230547 80 0 0.0 4.0 0.00 0.00 0.00 77 1009.2
20260508230053 80 0 0.0 3.0 0.00 0.00 0.00 78 1009.2
20260508225547 80 0 0.0 2.0 0.00 0.00 0.00 77 1009.1
20260508225048 80 0 0.0 2.0 0.00 0.00 0.00 77 1009.2
20260508224548 80 0 0.0 2.0 0.00 0.00 0.00 76 1009.3
20260508224047 80 0 0.0 2.0 0.00 0.00 0.00 77 1009.3
20260508223549 80 26 0.0 4.0 0.00 0.00 0.00 77 1009.2
20260508223052 80 0 0.0 4.0 0.00 0.00 0.00 76 1009.3
20260508222547 80 0 0.0 4.0 0.00 0.00 0.00 76 1009.3
20260508222046 80 26 1.0 4.0 0.00 0.00 0.00 76 1009.4
20260508221554 80 0 0.0 3.0 0.00 0.00 0.00 76 1009.3
20260508221046 80 0 1.0 4.0 0.00 0.00 0.00 76 1009.3
20260508220545 80 0 1.0 4.0 0.00 0.00 0.00 75 1009.4
20260508220053 80 0 0.0 3.0 0.00 0.00 0.00 77 1009.5
20260508215546 80 0 0.0 3.0 0.00 0.00 0.00 76 1009.4
20260508215047 80 0 0.0 3.0 0.00 0.00 0.00 75 1009.5
20260508214552 80 0 0.0 3.0 0.00 0.00 0.00 76 1009.4
20260508214048 80 0 0.0 4.0 0.00 0.00 0.00 75 1009.5
20260508213547 80 28 0.0 4.0 0.00 0.00 0.00 77 1009.5
20260508213053 80 28 0.0 4.0 0.00 0.00 0.00 76 1009.6
20260508212547 80 28 1.0 4.0 0.00 0.00 0.00 76 1009.6
20260508212047 80 0 0.0 4.0 0.00 0.00 0.00 77 1009.8
20260508211600 80 28 1.0 3.0 0.00 0.00 0.00 76 1009.8
20260508211051 80 0 0.0 3.0 0.00 0.00 0.00 77 1009.9
20260508210547 80 29 1.0 3.0 0.00 0.00 0.00 76 1010.1
20260508210055 80 0 0.0 3.0 0.00 0.00 0.00 76 1010.1
20260508205546 80 0 1.0 3.0 0.00 0.00 0.00 76 1010.1
20260508205046 80 29 0.0 4.0 0.00 0.00 0.00 75 1010.1
20260508204558 80 29 1.0 4.0 0.00 0.00 0.00 75 1010.2
20260508204047 80 29 0.0 3.0 0.00 0.00 0.00 76 1010.2
20260508203550 80 29 0.0 3.0 0.00 0.00 0.00 76 1010.3
20260508203058 80 29 0.0 4.0 0.00 0.00 0.00 76 1010.3
20260508202546 80 0 1.0 3.0 0.00 0.00 0.00 75 1010.3
20260508202050 80 0 0.0 3.0 0.00 0.00 0.00 74 1010.4
20260508201601 80 0 0.0 3.0 0.00 0.00 0.00 75 1010.5
20260508201047 80 30 1.0 4.0 0.00 0.00 0.00 75 1010.4
20260508200547 79 0 1.0 4.0 0.00 0.00 0.00 76 1010.5
20260508200111 79 27 0.0 4.0 0.00 0.00 0.00 76 1010.5
20260508195546 79 0 0.0 4.0 0.00 0.00 0.00 76 1010.8
20260508195047 79 0 0.0 2.0 0.00 0.00 0.00 76 1010.8
20260508194558 79 0 0.0 3.0 0.00 0.00 0.00 77 1010.8
20260508194048 78 0 0.0 4.0 0.00 0.00 0.00 77 1010.9
20260508193546 78 0 1.0 4.0 0.00 0.00 0.00 75 1010.9
20260508193150 78 27 0.0 3.0 0.00 0.00 0.00 76 1011.1
20260508192546 78 28 1.0 3.0 0.00 0.00 0.00 76 1011.2
20260508192046 78 28 0.0 4.0 0.00 0.00 0.00 76 1011.2
20260508191559 78 28 0.0 4.0 0.00 0.00 0.00 75 1011.3
20260508191045 78 27 2.0 4.0 0.00 0.00 0.00 75 1011.3
20260508190546 78 0 0.0 4.0 0.00 0.00 0.00 76 1011.3
20260508190056 78 0 1.0 4.0 0.00 0.00 0.00 74 1011.5
20260508185550 78 33 1.0 2.0 0.00 0.00 0.00 74 1011.4
20260508185046 78 0 0.0 3.0 0.00 0.00 0.00 74 1011.5
20260508184608 78 0 0.0 3.0 0.00 0.00 0.00 76 1011.5
20260508184048 78 34 0.0 3.0 0.00 0.00 0.00 75 1011.5
20260508183548 78 34 0.0 2.0 0.00 0.00 0.00 74 1011.7
20260508183113 78 0 0.0 3.0 0.00 0.00 0.00 74 1011.8
20260508182547 78 34 0.0 3.0 0.00 0.00 0.00 74 1011.9
20260508182046 78 34 0.0 3.0 0.00 0.00 0.00 74 1011.9
20260508181603 78 34 0.0 3.0 0.00 0.00 0.00 74 1012.0
20260508181046 78 34 0.0 2.0 0.00 0.00 0.00 76 1012.0
20260508180546 77 34 0.0 2.0 0.00 0.00 0.00 76 1012.1
20260508180050 77 34 0.0 3.0 0.00 0.00 0.00 75 1012.3
20260508175545 77 0 0.0 3.0 0.00 0.00 0.00 76 1012.3
20260508175048 77 0 0.0 2.0 0.00 0.00 0.00 75 1012.3
20260508174557 77 0 0.0 2.0 0.00 0.00 0.00 74 1012.3
20260508174045 77 0 0.0 2.0 0.00 0.00 0.00 74 1012.3
20260508173546 77 34 0.0 2.0 0.00 0.00 0.00 75 1012.4
20260508173053 76 34 0.0 2.0 0.00 0.00 0.00 76 1012.5
20260508172545 76 0 0.0 2.0 0.00 0.00 0.00 75 1012.6
20260508172047 76 0 0.0 3.0 0.00 0.00 0.00 75 1012.5
20260508171547 75 34 0.0 3.0 0.00 0.00 0.00 78 1012.6
20260508171047 75 34 0.0 1.0 0.00 0.00 0.00 77 1012.5
20260508170548 74 0 0.0 2.0 0.00 0.00 0.00 78 1012.5
20260508170057 74 34 0.0 3.0 0.00 0.00 0.00 77 1012.8
20260508165546 74 34 0.0 2.0 0.00 0.00 0.00 77 1012.9
20260508165048 73 0 0.0 2.0 0.00 0.00 0.00 79 1012.8
20260508164553 73 0 0.0 3.0 0.00 0.00 0.00 79 1012.8
20260508164046 72 0 1.0 3.0 0.00 0.00 0.00 80 1013.0
20260508163545 71 34 0.0 2.0 0.00 0.00 0.00 82 1012.9
20260508163054 71 34 0.0 3.0 0.00 0.00 0.00 80 1013.2
20260508162545 70 0 0.0 2.0 0.00 0.00 0.00 80 1013.2
20260508162047 70 0 1.0 2.0 0.00 0.00 0.00 79 1013.4
20260508161550 70 0 0.0 2.0 0.00 0.00 0.00 81 1013.5
20260508161045 69 0 0.0 2.0 0.00 0.00 0.00 80 1013.5
20260508160545 69 34 0.0 2.0 0.00 0.00 0.00 81 1013.6
20260508160051 69 0 0.0 2.0 0.00 0.00 0.00 80 1013.7
20260508155548 69 0 0.0 2.0 0.00 0.00 0.00 80 1013.8
20260508155048 69 0 0.0 2.0 0.00 0.00 0.00 79 1013.9
20260508154609 69 0 0.0 1.0 0.00 0.00 0.00 80 1013.9
20260508154045 68 0 0.0 1.0 0.00 0.00 0.00 81 1013.9
20260508153546 68 0 0.0 1.0 0.00 0.00 0.00 80 1013.8
20260508153057 68 0 0.0 1.0 0.00 0.00 0.00 80 1013.9